SCP
1 1 1 1 1 1 1 1 1 1 1 1 1 1 1 1 1 1 1 1 1 1 1 1 1 1 1 1 1 1 1 1 1 1 1 0 0 0 0 0 0 0 0
1 1 1 1 1 1 1 1 1 1 1 1 1 1 1 1 1 1 1 1 1 1 1 1 1 1 1 1 1 1 1 1 1 1 0 0 0 0 0 0 0 0 0
1 1 1 1 1 1 1 1 1 1 1 1 1 1 1 1 1 1 1 1 1 1 1 1 1 1 1 1 1 1 1 1 0 0 0 0 0 0 0 0 0 0 0
1 1 1 1 0 0 0 1 1 1 1 1 1 1 1 1 1 1 1 1 1 1 1 1 1 1 1 1 1 1 1 0 0 0 0 0 0 0 0 0 0 0 0
1 1 1 0 0 0 0 1 1 1 1 1 1 1 1 1 1 1 1 1 1 1 1 1 1 1 1 1 1 1 0 0 0 0 0 0 0 0 0 0 0 0 0
1 1 0 0 0 0 1 1 1 1 1 1 1 1 1 1 1 1 1 1 1 1 1 0 0 0 0 0 0 0 0 0 0 0 0 0 0 0 0 0 0 0 0
1 1 0 0 0 0 1 1 1 1 1 1 1 1 1 1 1 1 1 1 1 0 0 0 0 0 0 0 0 0 0 0 0 0 0 0 0 0 0 0 0 0 0
0 0 0 0 0 0 0 0 1 1 1 1 1 0 0 0 0 0 0 0 0 0 0 0 0 0 0 0 0 0 0 0 0 0 0 0 0 0 0 0 0 0 0
0 0 0 0 0 0 0 0 0 0 0 0 0 0 0 0 0 0 0 0 0 0 0 0 0 0 0 0 0 0 0 0 0 0 0 0 0 0 0 0 0 0 0
0 0 0 0 0 0 0 0 0 0 0 0 0 0 0 0 0 0 0 0 0 0 0 0 0 0 0 0 0 0 0 0 0 0 0 0 0 0 0 0 0 0 0
0 0 0 0 0 0 0 0 0 0 0 0 0 0 0 0 0 0 0 0 0 0 0 0 0 0 0 0 0 0 0 0 0 0 0 0 0 0 0 0 0 0 0
0 0 0 0 0 0 0 0 0 0 0 0 0 0 0 0 0 0 0 0 0 0 0 0 0 0 0 0 0 0 0 0 0 0 0 0 0 0 0 0 0 0 0
0 0 0 0 0 0 0 0 0 0 0 0 0 0 0 0 0 0 0 0 0 0 0 0 0 0 0 0 0 0 0 0 0 0 0 0 0 0 0 0 0 0 0
0 0 0 0 0 0 0 0 0 0 0 0 0 0 0 0 0 0 0 0 0 0 0 0 0 0 0 0 0 0 0 0 0 0 0 0 0 0 0 0 0 0 0
0 0 0 0 0 0 0 0 0 0 0 0 0 0 0 0 0 0 0 0 0 0 0 0 0 0 0 0 0 0 0 0 0 0 0 0 0 0 0 0 0 0 0
0 0 0 0 0 0 0 0 0 0 0 0 0 0 0 0 0 0 0 0 0 0 0 0 0 0 0 0 0 0 0 0 0 0 0 0 0 0 0 0 0 0 0
0 0 0 0 0 0 0 0 0 0 0 0 0 0 0 0 0 0 0 0 0 0 0 0 0 0 0 0 0 0 0 0 0 0 0 0 0 0 0 0 0 0 0
0 0 0 0 0 0 0 0 0 0 0 0 0 0 0 0 0 0 0 0 0 0 0 0 0 0 0 0 0 0 0 0 0 0 0 0 0 0 0 0 0 0 0
0 0 0 0 0 0 0 0 0 0 0 0 0 0 0 0 0 0 0 0 0 0 0 0 0 0 0 0 0 0 0 0 0 0 0 0 0 0 0 0 0 0 0
0 0 0 0 0 0 0 0 0 0 0 0 0 0 0 0 0 0 0 0 0 0 0 0 0 0 0 0 0 0 0 0 0 0 0 0 0 0 0 0 0 0 0
0 0 0 0 0 0 0 0 0 0 0 0 0 0 0 0 0 0 0 0 0 0 0 0 0 0 0 0 0 0 0 0 0 0 0 0 0 0 0 0 0 0 0
0 0 0 0 0 0 0 0 0 0 0 0 0 0 0 0 0 0 0 0 0 0 0 0 0 0 0 0 0 0 0 0 0 0 0 0 0 0 0 0 0 0 0
0 0 0 0 0 0 0 0 0 0 0 0 0 0 0 0 0 0 0 0 0 0 0 0 0 0 0 0 0 0 0 0 0 0 0 0 0 0 0 0 0 0 0
0 0 0 0 0 0 0 0 0 0 0 0 0 0 0 0 0 0 0 0 0 0 0 0 0 0 0 0 0 0 0 0 0 0 0 0 0 0 0 0 0 0 0
0 0 0 0 0 0 0 0 0 0 0 0 0 0 0 0 0 0 0 0 0 0 0 0 0 0 0 0 0 0 0 0 0 0 0 0 0 0 0 0 0 0 0
0 0 0 0 0 0 0 0 0 0 0 0 0 0 0 0 0 0 0 0 0 0 0 0 0 0 0 0 0 0 0 0 0 0 0 0 0 0 0 0 0 0 0
Wind_Speed
13 11 10 9 9 8 8 8 8 6 5 3 3 2 2 2 2 2 3 3 3 3 2 2 2 1 1 1 1 2 3 3 2 2 1 1 0 0 0 0 1 2 3
12 10 10 9 9 8 8 8 8 8 6 4 3 2 2 1 2 2 3 3 4 4 3 3 2 2 1 2 1 2 2 2 2 2 2 2 1 0 0 0 1 2 2
11 10 10 9 9 9 8 8 8 8 7 6 3 3 1 1 2 3 3 4 4 3 4 4 3 3 2 2 2 2 3 3 3 2 2 3 3 2 1 1 1 2 3
10 10 10 9 9 8 8 8 8 8 7 6 5 5 3 3 3 3 3 4 4 4 4 4 4 3 3 2 2 1 2 3 3 2 2 2 1 3 2 1 2 3 4
10 10 10 9 8 8 7 7 8 8 7 7 7 5 4 3 3 3 4 4 4 4 5 5 4 4 3 3 3 3 2 2 2 2 2 2 1 2 2 3 2 3 3
11 10 10 9 8 8 8 8 8 8 7 7 7 6 6 5 5 5 4 3 3 4 6 6 5 4 3 3 3 2 2 1 2 1 1 1 2 2 2 3 3 3 3
11 10 9 9 8 9 8 8 8 8 7 7 7 7 7 6 6 5 5 4 4 4 6 6 5 5 4 4 3 2 2 2 1 1 0 1 1 1 2 4 4 3 3
10 10 9 9 8 8 8 8 8 8 7 7 7 7 7 5 5 6 5 5 4 4 5 5 5 6 5 4 4 3 3 2 2 3 2 1 1 1 2 4 5 4 3
10 10 9 9 8 8 7 7 7 7 7 7 7 7 7 6 6 6 5 5 5 4 6 5 5 6 5 5 4 3 4 4 3 3 3 3 2 2 2 3 4 5 5
10 10 9 8 8 7 7 8 7 7 7 7 6 6 6 6 5 6 6 6 5 5 5 6 6 6 6 6 5 4 4 5 4 3 4 4 3 2 2 2 2 2 4
11 9 8 8 7 7 6 6 6 6 6 7 6 6 5 6 6 6 6 5 5 6 6 6 6 6 7 7 6 6 6 6 5 5 5 5 4 3 2 3 3 3 4
11 10 9 8 7 7 6 6 6 6 6 6 5 5 5 5 6 6 5 5 6 6 6 6 7 7 7 7 7 7 7 7 7 7 6 6 5 5 4 4 5 4 4
11 10 8 7 6 6 6 5 5 5 5 5 6 5 5 5 5 5 5 5 6 6 6 6 7 7 7 7 7 7 7 7 7 7 7 7 6 6 5 5 5 4 5
11 10 8 7 6 6 5 5 5 4 5 6 6 6 6 6 5 5 5 5 5 6 6 6 7 7 9 9 8 7 7 8 8 7 8 8 7 6 5 6 6 6 6
11 9 8 7 6 6 5 5 5 4 5 5 6 6 5 5 5 5 5 5 5 6 6 7 7 7 8 9 9 7 8 7 7 8 8 9 11 11 7 6 5 5 5
11 10 8 7 6 6 6 5 5 5 5 5 5 5 5 5 5 5 5 5 6 6 7 8 8 9 9 12 13 10 7 7 7 7 6 8 9 11 12 13 10 7 5
11 10 9 7 6 6 6 5 4 4 5 5 5 5 5 6 5 6 6 6 6 6 7 7 8 8 10 13 13 12 6 7 7 7 7 8 10 9 7 9 10 10 10
11 10 9 8 7 6 6 4 4 4 5 5 5 5 4 5 5 5 6 6 5 5 5 6 6 6 9 13 12 10 6 6 7 8 8 8 8 9 7 7 8 8 8
10 9 9 9 7 6 6 5 4 4 5 5 5 5 5 5 5 5 5 5 4 4 5 5 5 6 7 12 12 9 4 5 7 8 9 8 8 12 10 7 7 6 5
9 9 9 8 7 6 5 4 5 5 5 5 5 5 5 6 5 5 4 4 4 4 5 5 5 6 6 10 13 10 4 4 5 5 7 11 10 11 11 6 6 5 4
10 9 8 7 7 6 5 5 5 5 5 5 5 6 5 5 5 4 3 3 3 4 4 4 4 5 5 7 11 11 5 4 4 4 4 5 8 9 9 7 5 3 3
10 9 8 7 6 6 6 6 5 5 5 5 5 5 3 4 5 3 3 3 3 3 3 3 3 3 4 5 7 9 9 7 5 5 4 3 5 6 6 4 5 6 5
9 8 8 8 7 6 6 6 5 5 5 5 4 4 4 3 3 2 2 1 1 1 1 2 2 3 3 2 4 5 7 8 4 3 2 2 2 3 3 3 5 4 2
9 8 9 8 7 7 6 6 6 5 5 5 4 3 3 3 3 2 2 3 4 3 3 2 2 3 3 3 3 2 2 2 2 2 1 3 4 3 3 3 2 1 1
9 8 8 8 8 8 7 6 6 5 5 4 3 3 4 4 4 5 5 5 5 4 4 5 4 4 4 3 4 4 4 4 5 5 3 2 2 2 1 1 0 0 1
9 8 8 9 8 8 7 6 6 5 4 4 3 3 3 3 4 5 4 7 5 5 6 5 4 4 4 2 4 5 6 7 7 5 3 2 1 1 1 1 0 1 2
Wind_Direction
104 100 94 85 77 65 60 53 47 38 31 31 26 32 24 22 31 33 32 23 11 4 352 322 321 320 295 275 272 252 255 241 195 179 217 218 126 108 73 179 161 145 151
110 103 95 87 79 67 60 58 47 39 32 27 20 21 18 12 26 29 30 26 15 357 346 346 329 321 289 272 255 246 248 244 210 187 185 196 183 137 310 88 129 125 120
121 112 96 83 74 66 58 55 48 41 31 20 26 28 25 18 34 21 27 25 13 8 1 350 339 324 309 298 272 249 232 240 233 202 186 190 193 155 109 52 81 101 115
107 103 95 81 71 65 62 59 54 45 33 26 28 28 35 29 24 22 27 24 19 13 5 355 349 338 331 320 295 275 253 233 235 221 212 218 164 161 151 98 64 68 78
112 102 95 87 78 70 62 60 57 48 38 33 31 29 35 31 28 30 29 27 23 19 14 6 357 347 342 337 333 330 299 259 241 223 200 197 210 164 156 153 124 75 52
111 103 98 90 78 69 61 60 57 49 43 40 36 32 31 31 31 29 26 22 24 24 21 13 5 358 355 348 344 337 327 305 277 254 202 176 184 180 164 154 142 115 75
116 107 101 92 79 67 60 57 57 50 44 43 39 33 31 31 32 26 25 21 26 26 17 14 6 1 359 358 351 348 348 350 340 326 255 200 215 177 148 133 131 116 99
117 107 97 87 84 76 64 59 57 51 46 46 43 38 32 31 32 27 26 28 26 25 17 13 10 5 2 5 3 8 5 19 25 31 35 64 69 99 127 135 139 130 120
112 105 97 89 81 77 69 64 59 54 47 46 48 48 41 37 33 30 30 29 22 23 23 19 15 11 10 14 18 26 23 24 34 43 47 57 62 86 101 127 145 144 143
118 110 102 93 85 79 73 69 64 59 50 45 42 48 43 42 40 39 35 29 26 26 24 23 23 22 19 21 28 38 35 40 34 42 50 51 56 76 95 121 119 121 131
126 114 107 99 93 85 80 75 70 64 57 52 46 43 43 43 43 43 37 30 25 27 33 31 30 28 26 26 30 40 41 43 39 40 53 56 57 71 81 93 97 97 108
125 119 114 106 97 88 80 74 70 67 64 62 57 52 52 50 47 46 39 36 32 29 35 37 36 40 39 33 35 41 45 46 45 43 47 51 59 67 76 84 92 96 101
126 123 118 112 105 95 85 77 72 69 67 69 67 58 55 58 54 50 45 41 41 37 39 43 43 41 41 42 43 46 50 50 50 51 53 53 57 61 69 81 87 94 105
130 127 124 118 110 100 92 88 77 71 73 70 65 60 55 53 52 51 49 47 45 45 44 47 49 47 43 39 38 44 53 54 54 57 59 56 56 60 68 82 88 98 103
133 131 126 120 113 107 101 92 83 74 74 77 73 72 72 61 56 53 51 50 48 54 52 53 52 51 48 36 30 33 53 55 60 63 66 67 69 65 66 80 89 100 107
136 131 126 123 118 116 108 96 88 83 82 82 81 80 77 71 62 59 56 58 57 56 58 53 53 49 43 27 29 33 43 49 52 57 67 77 70 70 73 75 76 84 101
136 133 131 124 117 110 104 105 103 94 89 85 84 82 80 75 65 64 64 61 60 62 64 63 60 55 36 26 24 27 38 53 50 48 46 57 55 51 63 77 77 70 66
135 132 127 121 119 113 107 104 104 103 101 93 87 89 89 86 77 69 64 65 65 67 70 69 65 59 39 25 21 19 51 58 54 51 53 58 48 38 42 66 72 68 57
129 126 123 121 119 116 117 112 107 109 106 100 88 82 82 83 81 77 71 69 72 72 75 74 66 57 39 24 20 13 61 67 63 57 49 49 48 32 40 59 69 76 79
122 125 125 125 123 124 125 121 111 103 99 96 90 85 83 85 81 73 71 73 71 74 79 72 64 58 48 30 25 15 47 70 82 81 69 54 46 36 37 49 59 60 51
130 132 131 126 125 126 124 119 110 106 100 98 95 90 91 96 91 80 73 76 75 75 83 85 77 67 54 47 35 29 28 25 58 75 70 52 38 36 33 41 53 46 357
133 132 127 124 125 127 125 119 113 113 105 100 95 94 93 93 100 96 81 85 94 101 104 110 102 91 70 47 35 32 34 30 45 56 61 62 37 26 13 19 8 356 342
134 132 130 127 128 132 133 124 118 118 116 110 104 102 94 79 81 91 105 115 122 125 122 130 121 114 108 80 34 28 32 33 39 44 41 17 351 336 315 304 323 328 319
139 138 135 134 134 137 132 124 122 123 119 117 116 117 111 100 80 44 47 54 41 34 40 50 80 94 80 55 21 2 52 40 33 5 321 280 282 280 295 295 285 277 37
140 139 139 139 138 135 133 131 128 126 127 130 135 131 121 103 85 70 46 57 58 54 41 27 31 50 69 43 26 20 18 8 10 334 295 253 232 224 218 226 214 140 106
142 144 145 142 140 139 137 132 132 139 144 148 148 144 142 142 138 127 103 59 79 85 77 68 66 75 81 71 25 22 4 352 352 342 306 315 345 359 22 22 16 61 69